GW0483 Weather Reports


Display with metric or nautical units.
time (UTC)temp
F
wind
direction
speed
MPH
gust
MPH
rain 1hr
in
rain 24hr
in
rain mn
in
humidity
%
barometer
mb
20260503011021 65 76 0.0 0.0 0.00 0.00 0.00 60 1018.9
20260503010517 66 77 0.0 1.0 0.00 0.00 0.00 57 1018.8
20260503010015 66 73 0.0 0.0 0.00 0.00 0.00 57 1018.6
20260503005512 67 78 0.0 0.0 0.00 0.00 0.00 56 1018.7
20260503005009 67 85 0.0 0.0 0.00 0.00 0.00 54 1018.7
20260503004504 68 98 0.0 0.0 0.00 0.00 0.00 53 1018.6
20260503004003 68 99 0.0 1.0 0.00 0.00 0.00 52 1018.5
20260503003459 69 109 1.0 2.0 0.00 0.00 0.00 50 1018.6
20260503002956 69 64 0.0 1.0 0.00 0.00 0.00 51 1018.7
20260503002453 70 83 0.0 1.0 0.00 0.00 0.00 50 1018.7
20260503001949 71 111 2.0 2.0 0.00 0.00 0.00 48 1018.6
20260503001446 72 72 0.0 0.0 0.00 0.00 0.00 45 1018.5
20260503000944 72 85 1.0 2.0 0.00 0.00 0.00 47 1018.6
20260503000441 73 118 2.0 2.0 0.00 0.00 0.00 45 1018.6
20260502235938 73 91 2.0 2.0 0.00 0.00 0.00 43 1018.3
20260502235435 74 119 0.0 1.0 0.00 0.00 0.00 43 1018.5
20260502234932 75 13 0.0 1.0 0.00 0.00 0.00 42 1018.5
20260502234429 75 86 0.0 1.0 0.00 0.00 0.00 40 1018.5
20260502233926 75 20 0.0 1.0 0.00 0.00 0.00 40 1018.7
20260502233421 75 25 1.0 2.0 0.00 0.00 0.00 40 1018.3
20260502232919 76 111 1.0 2.0 0.00 0.00 0.00 39 1018.2
20260502232414 76 75 1.0 2.0 0.00 0.00 0.00 40 1018.3
20260502231912 75 7 2.0 3.0 0.00 0.00 0.00 40 1018.6
20260502231409 76 64 3.0 5.0 0.00 0.00 0.00 39 1018.5
20260502230907 77 18 1.0 2.0 0.00 0.00 0.00 41 1018.6
20260502230405 76 19 2.0 2.0 0.00 0.00 0.00 40 1018.5
20260502225903 76 80 1.0 2.0 0.00 0.00 0.00 41 1018.2
20260502225358 77 78 0.0 1.0 0.00 0.00 0.00 41 1018.0
20260502224855 76 41 1.0 1.0 0.00 0.00 0.00 39 1018.3
20260502224351 76 78 0.0 1.0 0.00 0.00 0.00 42 1018.2
20260502223849 77 96 1.0 2.0 0.00 0.00 0.00 41 1018.3
20260502223347 76 83 1.0 2.0 0.00 0.00 0.00 44 1017.8
20260502222844 75 130 0.0 0.0 0.00 0.00 0.00 44 1018.0
20260502222342 74 11 1.0 2.0 0.00 0.00 0.00 44 1018.2
20260502221837 76 42 0.0 2.0 0.00 0.00 0.00 42 1018.1
20260502221334 77 351 3.0 5.0 0.00 0.00 0.00 41 1018.2
20260502220831 77 129 2.0 3.0 0.00 0.00 0.00 41 1018.1
20260502220327 77 113 2.0 2.0 0.00 0.00 0.00 42 1018.5
20260502215823 76 145 2.0 2.0 0.00 0.00 0.00 44 1018.3
20260502215321 76 135 3.0 3.0 0.00 0.00 0.00 43 1018.3
20260502214818 77 102 1.0 2.0 0.00 0.00 0.00 43 1018.3
20260502214315 76 83 2.0 2.0 0.00 0.00 0.00 43 1018.5
20260502213812 76 102 0.0 0.0 0.00 0.00 0.00 41 1018.3
20260502213309 77 56 2.0 3.0 0.00 0.00 0.00 44 1018.6
20260502212808 77 57 4.0 5.0 0.00 0.00 0.00 41 1018.5
20260502212306 77 143 2.0 3.0 0.00 0.00 0.00 43 1019.1
20260502211803 76 140 3.0 5.0 0.00 0.00 0.00 44 1018.9
20260502211258 76 151 2.0 2.0 0.00 0.00 0.00 42 1018.9
20260502210755 76 206 3.0 3.0 0.00 0.00 0.00 45 1018.9
20260502210253 76 326 4.0 7.0 0.00 0.00 0.00 44 1019.0
20260502205750 76 108 3.0 3.0 0.00 0.00 0.00 44 1018.9
20260502205246 75 13 2.0 2.0 0.00 0.00 0.00 45 1019.1
20260502204743 75 70 2.0 3.0 0.00 0.00 0.00 45 1019.3
20260502204240 76 10 2.0 5.0 0.00 0.00 0.00 44 1019.2
20260502203738 76 43 1.0 2.0 0.00 0.00 0.00 44 1019.2
20260502203236 75 10 1.0 1.0 0.00 0.00 0.00 45 1019.5
20260502202730 75 121 2.0 2.0 0.00 0.00 0.00 45 1019.4
20260502202228 75 160 2.0 5.0 0.00 0.00 0.00 47 1019.4
20260502201726 76 336 4.0 6.0 0.00 0.00 0.00 43 1019.4
20260502201222 75 36 3.0 5.0 0.00 0.00 0.00 46 1019.7
20260502200718 75 2 2.0 6.0 0.00 0.00 0.00 45 1019.6
20260502200214 75 11 4.0 7.0 0.00 0.00 0.00 44 1019.8
20260502195713 75 352 3.0 6.0 0.00 0.00 0.00 44 1019.6
20260502195209 75 47 1.0 3.0 0.00 0.00 0.00 45 1019.8
20260502194706 75 151 1.0 2.0 0.00 0.00 0.00 46 1019.9
20260502194203 74 121 1.0 3.0 0.00 0.00 0.00 47 1019.7
20260502193659 74 36 5.0 8.0 0.00 0.00 0.00 47 1019.8
20260502193156 74 67 3.0 3.0 0.00 0.00 0.00 48 1019.9
20260502192651 73 48 3.0 5.0 0.00 0.00 0.00 48 1019.8
20260502192149 73 48 1.0 2.0 0.00 0.00 0.00 50 1019.9
20260502191645 74 126 3.0 6.0 0.00 0.00 0.00 48 1020.0
20260502191143 74 59 2.0 3.0 0.00 0.00 0.00 49 1019.9
20260502190640 73 95 3.0 5.0 0.00 0.00 0.00 54 1020.1
20260502190139 73 85 1.0 3.0 0.00 0.00 0.00 52 1020.1
20260502185632 73 144 2.0 3.0 0.00 0.00 0.00 51 1020.3
20260502185129 73 34 0.0 1.0 0.00 0.00 0.00 49 1020.3
20260502184625 73 48 0.0 0.0 0.00 0.00 0.00 51 1020.0
20260502184121 72 321 4.0 6.0 0.00 0.00 0.00 51 1020.0
20260502183618 73 25 3.0 5.0 0.00 0.00 0.00 52 1020.4
20260502183114 72 83 1.0 2.0 0.00 0.00 0.00 53 1020.2
20260502182609 71 117 2.0 2.0 0.00 0.00 0.00 54 1020.4
20260502182105 72 143 2.0 5.0 0.00 0.00 0.00 54 1020.3
20260502181603 71 10 2.0 2.0 0.00 0.00 0.00 54 1020.4
20260502181102 70 40 1.0 2.0 0.00 0.00 0.00 56 1020.6
20260502180558 70 61 4.0 6.0 0.00 0.00 0.00 55 1020.6
20260502170518 67 272 1.0 2.0 0.00 0.00 0.00 58 1021.6
20260502164001 68 8 3.0 7.0 0.00 0.00 0.00 56 1021.8
20260502163457 67 308 3.0 5.0 0.00 0.00 0.00 56 1021.5
20260502162954 67 21 1.0 2.0 0.00 0.00 0.00 57 1021.7
20260502162451 67 34 1.0 2.0 0.00 0.00 0.00 56 1022.1
20260502161948 67 40 3.0 5.0 0.00 0.00 0.00 58 1021.8
20260502161445 67 66 2.0 3.0 0.00 0.00 0.00 59 1021.5
20260502160943 66 78 3.0 5.0 0.00 0.00 0.00 59 1021.8
20260502160440 66 125 1.0 2.0 0.00 0.00 0.00 60 1021.7
20260502151924 62 337 2.0 2.0 0.00 0.00 0.00 69 1021.0
20260502151420 63 68 2.0 5.0 0.00 0.00 0.00 71 1021.4
20260502150918 63 34 2.0 3.0 0.00 0.00 0.00 70 1021.0
20260502150414 62 23 2.0 2.0 0.00 0.00 0.00 70 1021.1
20260502130300 51 62 0.0 0.0 0.00 0.00 0.00 94 1019.9
20260502123746 49 48 0.0 0.0 0.00 0.00 0.00 96 1019.6
20260502123243 49 0 1.0 2.0 0.00 0.00 0.00 96 1019.4
20260502122739 49 43 0.0 1.0 0.00 0.00 0.00 96 1019.5
20260502122235 49 16 2.0 2.0 0.00 0.00 0.00 96 1019.3
20260502121734 48 64 0.0 1.0 0.00 0.00 0.00 96 1019.0
20260502121231 48 43 0.0 1.0 0.00 0.00 0.00 96 1019.0
20260502120727 48 62 0.0 0.0 0.00 0.00 0.00 96 1019.0
20260502120224 48 38 1.0 1.0 0.00 0.00 0.00 96 1018.9
20260502115722 48 42 0.0 1.0 0.00 0.00 0.00 96 1018.5
20260502115219 48 65 0.0 0.0 0.00 0.00 0.00 96 1018.8
20260502114714 48 22 0.0 1.0 0.00 0.00 0.00 96 1018.7
20260502114212 48 53 0.0 0.0 0.00 0.00 0.00 96 1018.7
20260502113709 48 34 1.0 2.0 0.00 0.00 0.00 96 1018.9
20260502113207 48 58 0.0 1.0 0.00 0.00 0.00 96 1018.6
20260502112705 49 54 0.0 1.0 0.00 0.00 0.00 96 1018.6
20260502112202 49 18 3.0 3.0 0.00 0.00 0.00 96 1018.6
20260502111659 49 70 0.0 1.0 0.00 0.00 0.00 96 1018.7
20260502111157 49 46 2.0 3.0 0.00 0.00 0.00 96 1018.6
20260502110654 49 326 3.0 5.0 0.00 0.00 0.00 96 1018.5
20260502110151 49 25 3.0 6.0 0.00 0.00 0.00 96 1018.3
20260502105649 49 49 3.0 3.0 0.00 0.00 0.00 96 1018.5
20260502105146 49 20 1.0 2.0 0.00 0.00 0.00 96 1018.6
20260502104643 49 352 3.0 5.0 0.00 0.00 0.00 96 1018.3
20260502104141 49 345 4.0 5.0 0.00 0.00 0.00 96 1018.0
20260502103638 49 353 3.0 5.0 0.00 0.00 0.00 96 1017.9
20260502103136 49 17 1.0 1.0 0.00 0.00 0.00 96 1018.0
20260502102632 49 42 2.0 5.0 0.00 0.00 0.00 96 1018.0
20260502102129 49 31 3.0 5.0 0.00 0.00 0.00 97 1018.0
20260502101627 49 65 0.0 0.0 0.00 0.00 0.00 97 1017.9
20260502101125 49 62 0.0 0.0 0.00 0.00 0.00 97 1017.8
20260502100624 49 17 3.0 3.0 0.00 0.00 0.00 97 1017.7
20260502100121 49 55 0.0 0.0 0.00 0.00 0.00 97 1017.7
20260502091055 49 51 0.0 0.0 0.00 0.00 0.00 97 1016.9
20260502090552 49 68 0.0 1.0 0.00 0.00 0.00 97 1016.7
20260502071446 50 16 1.0 2.0 0.00 0.00 0.00 97 1016.4
20260502070944 51 35 2.0 3.0 0.00 0.00 0.00 97 1016.5
20260502070442 51 78 1.0 1.0 0.00 0.00 0.00 97 1016.6
20260502065941 51 44 1.0 2.0 0.00 0.00 0.00 97 1016.6
20260502065439 51 26 1.0 1.0 0.00 0.00 0.00 97 1016.6
20260502064936 51 49 1.0 1.0 0.00 0.00 0.00 97 1016.5
20260502064434 51 48 0.0 0.0 0.00 0.00 0.00 97 1016.7
20260502063931 51 43 0.0 0.0 0.00 0.00 0.00 97 1016.4
20260502063429 51 43 1.0 1.0 0.00 0.00 0.00 97 1016.5
20260502062926 51 48 3.0 5.0 0.00 0.00 0.00 97 1016.4
20260502062423 51 17 1.0 1.0 0.00 0.00 0.00 97 1016.3
20260502061922 51 67 0.0 1.0 0.00 0.00 0.00 96 1016.5
20260502061420 51 63 0.0 1.0 0.00 0.00 0.00 96 1016.2
20260502060915 51 57 0.0 0.0 0.00 0.00 0.00 96 1016.3
20260502060410 51 66 0.0 0.0 0.00 0.00 0.00 96 1016.4
20260502055908 51 59 3.0 3.0 0.00 0.00 0.00 96 1016.2
20260502055405 51 49 3.0 3.0 0.00 0.00 0.00 96 1016.4
20260502054900 51 128 2.0 2.0 0.00 0.00 0.00 96 1016.2
20260502054357 51 55 0.0 1.0 0.00 0.00 0.00 96 1016.3
20260502053854 51 16 1.0 2.0 0.00 0.00 0.00 96 1016.3
20260502053351 51 55 0.0 0.0 0.00 0.00 0.00 96 1016.6
20260502052849 51 25 0.0 1.0 0.00 0.00 0.00 96 1016.5
20260502052347 51 354 1.0 2.0 0.00 0.00 0.00 96 1016.7
20260502051844 51 66 0.0 1.0 0.00 0.00 0.00 96 1016.8
20260502051343 51 43 2.0 2.0 0.00 0.00 0.00 96 1016.6
20260502050839 51 48 1.0 2.0 0.00 0.00 0.00 96 1016.5
20260502050335 51 61 0.0 0.0 0.00 0.00 0.00 96 1016.5
20260502045833 51 26 1.0 1.0 0.00 1.97 1.97 96 1016.6
20260502045329 51 32 0.0 1.0 0.00 1.97 1.97 96 1016.4
20260502044826 52 45 2.0 5.0 0.00 1.97 1.97 96 1016.2
20260502044322 52 59 2.0 3.0 0.00 1.97 1.97 96 1016.2
20260502043820 52 92 2.0 3.0 0.00 1.97 1.97 96 1016.2
20260502043317 52 54 0.0 1.0 0.00 1.97 1.97 96 1016.3
20260502042817 52 39 3.0 3.0 0.00 1.97 1.97 95 1016.2
20260502042314 52 84 1.0 1.0 0.00 1.97 1.97 95 1016.2
20260502041812 52 69 1.0 1.0 0.00 1.97 1.97 95 1016.0
20260502041309 52 92 1.0 1.0 0.00 1.97 1.97 95 1016.3
20260502040806 52 49 3.0 6.0 0.00 1.97 1.97 95 1016.2
20260502040303 52 54 1.0 2.0 0.00 1.97 1.97 95 1016.4
20260502035759 53 65 3.0 3.0 0.00 1.97 1.97 95 1016.1
20260502035255 53 36 5.0 7.0 0.00 1.97 1.97 95 1016.3
20260502034753 52 46 3.0 6.0 0.00 1.97 1.97 95 1016.1
20260502034251 52 47 0.0 1.0 0.00 1.97 1.97 95 1016.0
20260502033749 52 40 2.0 2.0 0.00 1.97 1.97 95 1016.1
20260502033246 52 32 1.0 3.0 0.00 1.97 1.97 95 1015.9
20260502032743 52 63 0.0 1.0 0.00 1.97 1.97 96 1016.1
20260502032239 52 4 5.0 8.0 0.00 1.97 1.97 96 1016.0
20260502031737 52 148 2.0 3.0 0.00 1.97 1.97 96 1015.9
20260502031235 52 37 1.0 3.0 0.00 1.97 1.97 97 1015.9
20260502030733 52 68 1.0 3.0 0.00 1.97 1.97 97 1016.0
20260502030231 52 69 3.0 5.0 0.00 1.97 1.97 97 1015.9
20260502025728 52 124 1.0 1.0 0.00 1.97 1.97 98 1015.4
20260502025226 52 60 2.0 2.0 0.00 1.97 1.97 98 1015.7
20260502024723 52 336 1.0 2.0 0.00 1.97 1.97 98 1015.3
20260502024221 52 38 4.0 13.0 0.00 1.97 1.97 98 1014.9
20260502023719 51 357 3.0 6.0 0.00 1.97 1.97 99 1015.2
20260502023216 51 155 3.0 5.0 0.00 1.97 1.97 99 1014.9
20260502022714 51 70 3.0 6.0 0.00 1.97 1.97 99 1014.7
20260502022210 51 94 5.0 7.0 0.00 1.97 1.97 99 1014.7
20260502021707 51 323 4.0 6.0 0.00 1.97 1.97 99 1014.6
20260502021204 51 49 4.0 6.0 0.00 1.97 1.97 99 1014.6
20260502020701 51 34 4.0 10.0 0.00 1.97 1.97 99 1014.5
20260502020158 51 8 4.0 7.0 0.00 1.97 1.97 99 1014.8
20260502015656 51 330 2.0 2.0 0.00 1.97 1.97 99 1014.6
20260502015152 51 97 1.0 2.0 0.00 1.97 1.97 99 1014.3
20260502014650 51 24 3.0 5.0 0.00 1.97 1.97 99 1014.4
20260502014147 52 141 4.0 9.0 0.00 1.97 1.97 99 1014.1
20260502013643 52 103 5.0 10.0 0.00 1.97 1.97 99 1014.1
20260502013138 52 125 3.0 8.0 0.00 1.97 1.97 99 1014.1
20260502012636 53 28 5.0 9.0 0.00 1.97 1.97 99 1014.2
20260502012134 53 18 2.0 2.0 0.00 1.97 1.97 99 1013.9
20260502011630 53 120 1.0 3.0 0.00 1.97 1.97 99 1014.0